Regional Weather Roundup
Issued by NWS

Home | Current Version | Previous Version | Text Only | Print | Product List | Glossary On
Versions: 1 2 3 4 5 6 7 8 9 10 11 12 13 14 15 16 17 18 19 20 21 22 23 24 25 26 27 28 29 30 31 32 33 34 35 36 37 38 39 40 41 42 43 44 45 46 47 48 49 50
000
ASUS43 KDTX 051610
RWRMI
MICHIGAN HOURLY REGIONAL WEATHER ROUNDUP
NATIONAL WEATHER SERVICE DETROIT/PONTIAC MI
1200 PM EDT TUE MAY 05 2015

NOTE: "FAIR" INDICATES FEW OR NO CLOUDS BELOW 12,000 FEET WITH NO
SIGNIFICANT WEATHER AND/OR OBSTRUCTION TO VISIBILITY.

MIZ047>049-052>055-059>063-066>070-074>076-081>083-051700-
SOUTHEAST LOWER MICHIGAN

CITY           SKY/WX    TMP DP  RH WIND       PRES   REMARKS
ADRIAN         LGT RAIN  52  46  80 NE8       30.29F
ALMA           DRIZZLE   50  46  84 NE9       30.34F
ANN ARBOR      LGT RAIN  50  45  83 N9        30.31R
BAD AXE        CLOUDY    50  40  68 NW3       30.35R
CARO           LGT RAIN  50  45  84 CALM      30.35R
DETROIT CITY   RAIN      50  43  77 N5        30.34R
DETROIT        RAIN      51  46  83 N9        30.29F
FLINT          LGT RAIN  51  44  77 CALM      30.36R
GROSSE ILE     RAIN      52  46  82 N5        30.30R
HILLSDALE      CLOUDY    52  48  86 E9        30.27S
HOWELL         LGT RAIN  48  46  92 NE8       30.31F

CITY           SKY/WX    TMP DP  RH WIND       PRES   REMARKS
JACKSON        LGT RAIN  49  45  86 NE9       30.30R
LAMBERTVILLE   LGT RAIN  54  46  76 E7        30.27F
LANSING        CLOUDY    50  44  80 E12       30.31F
LAPEER         LGT RAIN  47  44  88 CALM      30.35R
MASON          LGT RAIN  47  43  84 NE12G17   30.30F
MONROE         RAIN      52  46  82 E7        30.25F
MT. CLEMENS    LGT RAIN  51  45  77 N10       30.30R
PONTIAC        HVY RAIN  48  45  89 N9        30.32R FOG
PORT HOPE        N/A     44  38  79 NW6       30.33R
PORT HURON     LGT RAIN  48  41  76 N5        30.33R
TRI CITIES     LGT RAIN  54  43  66 E3        30.35S
MIDLAND        LGT RAIN  53  39  57 CALM      30.34F
TROY           HVY RAIN  51  47  85 N5        30.34R
SAGINAW HB     DRIZZLE   52  43  71 CALM      30.34F
$$
MIZ043>046-050>051-056>058-064>065-071>073-077>080-051700-
SOUTHWEST LOWER MICHIGAN

CITY           SKY/WX    TMP DP  RH WIND       PRES   REMARKS
BATTLE CREEK   LGT RAIN  50  46  86 E10       30.29S
BENTON HARBOR  LGT RAIN  54  53  97 E10       30.22F
BIG RAPIDS     CLOUDY    52  38  59 E5        30.31F
COLDWATER      CLOUDY    53  49  86 E7        30.26S
FREMONT        RAIN      49  44  81 E6        30.29S
HOLLAND        LGT RAIN  51  44  77 E15G25    30.29R
GRAND RAPIDS   LGT RAIN  50  44  80 E15       30.28S
IONIA          LGT RAIN  50  44  79 E9        30.30F
KALAMAZOO      LGT RAIN  51  46  83 E9G18     30.28R
LUDINGTON      CLOUDY    58  31  36 E12       30.30S
MARSHALL       LGT RAIN  47  45  91 E6        30.28R
MOUNT PLEASANT DRIZZLE   51  41  67 NE3       30.33F
MUSKEGON       LGT RAIN  50  44  80 E15       30.29R
SOUTH HAVEN    LGT RAIN  53  50  89 E10       30.25R
$$
MIZ016>042-051700-
NORTHERN LOWER MICHIGAN

CITY           SKY/WX    TMP DP  RH WIND       PRES   REMARKS
ALPENA         CLOUDY    60  40  47 N7        30.35S
BEAVER ISLAND  SUNNY     61  27  27 E9        30.36S
BELLAIRE       PTSUNNY   61  34  37 CALM      30.34F
CADILLAC       CLOUDY    55  31  39 E9        30.32F
CHARLEVOIX     MOSUNNY   54  39  58 N6        30.37F
FRANKFORT      PTSUNNY   61  23  22 E7        30.32F
GAYLORD        PTSUNNY   58  27  30 E8        30.35S
GRAYLING       CLOUDY    56  36  47 CALM      30.35S
HARBOR SPRINGS MOSUNNY   64  28  25 E13       30.35S
MANISTEE       CLOUDY    55  34  44 E10       30.32F
OSCODA         CLOUDY    57  42  56 CALM      30.33S
PELLSTON       MOSUNNY   64  25  22 E9        30.35F
ROGERS CITY    PTSUNNY   52  38  59 N6        30.37S
TRAVERSE CITY  CLOUDY    52  38  58 N5        30.34S
$$
MIZ007>008-015-051700-
EASTERN UPPER MICHIGAN

CITY           SKY/WX    TMP DP  RH WIND       PRES   REMARKS
KINROSS        SUNNY     63  30  29 CALM      30.35S
MACKINAC ISLAN SUNNY     59  29  31 E7        30.35F
NEWBERRY       SUNNY     64  31  28 E3        30.34F
S. S. MARIE    SUNNY     63  32  31 NW6       30.34F
MUNISING         N/A     49  35  58 CALM      30.33S
$$
MIZ004>006-011>014-085-051700-
CENTRAL UPPER MICHIGAN

CITY           SKY/WX    TMP DP  RH WIND       PRES   REMARKS
MANISTIQUE     SUNNY     55  37  49 S6        30.36R
ESCANABA       SUNNY     57  36  44 S9        30.35R
MENOMINEE      SUNNY     55  36  47 E7        30.34F
SAWYER-GWINN   SUNNY     63  28  27 E5        30.33S
$$
MIZ001>003-009>011-084-051700-
WESTERN UPPER MICHIGAN

CITY           SKY/WX    TMP DP  RH WIND       PRES   REMARKS
IRON MOUNTAIN  SUNNY     64  29  26 E8        30.32S
HOUGHTON       SUNNY     64  26  23 MISG      30.31S
COPPER HARBOR    N/A     55  29  36 E6        30.31F
IRONWOOD       SUNNY     64  27  24 E8G16     30.26F
$$

ABBREVIATIONS USED IN REMARKS
   TC - TEMPERATURE IN CELSIUS
  WCI - WIND CHILL INDEX
   HX - HEAT INDEX
  VSB - VISIBILITY




USA.gov is the U.S. government's official web portal to all federal, state and local government web resources and services.